Main page
METAR-TAF:

METAR-TAF

Airports :

Paso de los Libres Airport

Paso de los Libres, Argentina

latitude: 29-41S, longitude: 057-09W, elevation: 69 m

Current weather observation

The report was made 28 minutes ago, at 00:00 UTC
Wind 5 kt from the East
Temperature 24°C
Humidity 94%
Pressure 1013 hPa
Visibility: 8000 m
Scattered clouds at a height of 1800 ft
Few clouds at a height of 5000 ft, Cumulonimbus.
thunderstorm, rain,

METAR: SARL 010000Z 09005KT 8000 TSRA SCT018 FEW050CB OCV050 24/23 Q1013

Time: 21:28 (00:28 UTC)


TAF: missing

Weather observations and forecasts of more than 4000 airports (METAR and TAF reports).

The available stations are represented by yellow and red dots on the map.

Hover mouse over dot to see the name of the station.

Then click to see weather observations and forecasts.

To change the map : click on the green buttons with a black cross to zoom in, on the green button with a dash to zoom out, or on the green arrows for adjacent maps.


METAR-TAF: